Location: Melizzano
(41.1500°N, 14.5000°E)
Time: 04:38:45
(UTC+00:00)

GPS 2-04 Rocket1 - Pass Details

Date: 11 May 2021
Orbit: 416 x 540 km, 35.6° (Epoch: 14 June)

Event Time Altitude Azimuth Distance (km) Brightness Sun altitude
Rises 20:24:20 0° 254° (WSW) 2,669 6.6 -20.8°
Reaches altitude 10° 20:26:43 10° 246° (WSW) 1,768 5.6 -21.1°
Enters shadow 20:28:57 27° 224° (SW) 1,038 4.1 -21.4°
